| time (UTC) | temp F | wind direction | speed knots | gust knots | rain 1hr in | rain 24hr in | rain mn in | humidity % | barometer mb |
| 20260510001919 | 77 | 225 | 8.7 | 12.2 | 0.00 | 0.00 | 0.00 | 44 | 1024.8 |
| 20260510001017 | 75 | 222 | 6.1 | 8.7 | 0.00 | 0.00 | 0.00 | 47 | 1024.7 |
| 20260510000017 | 73 | 225 | 6.1 | 8.7 | 0.00 | 0.00 | 0.00 | 43 | 1024.8 |
| 20260509235019 | 71 | 225 | 5.2 | 6.1 | 0.00 | 0.00 | 0.00 | 44 | 1024.7 |
| 20260509234018 | 70 | 45 | 3.5 | 4.3 | 0.00 | 0.00 | 0.00 | 45 | 1024.8 |
| 20260509233116 | 71 | 45 | 5.2 | 6.1 | 0.00 | 0.00 | 0.00 | 46 | 1024.9 |
| 20260509232118 | 71 | 45 | 6.1 | 7.8 | 0.00 | 0.00 | 0.00 | 46 | 1025.1 |
| 20260509231118 | 72 | 45 | 5.2 | 6.1 | 0.00 | 0.00 | 0.00 | 45 | 1025.2 |
| 20260509230117 | 73 | 22 | 5.2 | 6.1 | 0.00 | 0.00 | 0.00 | 44 | 1025.4 |
| 20260509225217 | 72 | 45 | 7.0 | 7.8 | 0.00 | 0.00 | 0.00 | 44 | 1025.6 |
| 20260509225117 | 72 | 45 | 7.0 | 8.7 | 0.00 | 0.00 | 0.00 | 45 | 1025.6 |
| 20260509224118 | 72 | 39 | 7.0 | 7.8 | 0.00 | 0.00 | 0.00 | 46 | 1025.6 |
| 20260509222218 | 71 | 22 | 7.8 | 8.7 | 0.00 | 0.00 | 0.00 | 49 | 1026.0 |
| 20260509221317 | 72 | 29 | 4.3 | 5.2 | 0.00 | 0.00 | 0.00 | 46 | 1026.2 |
| 20260509215318 | 72 | 22 | 9.6 | 10.4 | 0.00 | 0.00 | 0.00 | 45 | 1026.7 |
| 20260509214317 | 72 | 24 | 8.7 | 9.6 | 0.00 | 0.00 | 0.00 | 44 | 1026.7 |
| 20260509212416 | 72 | 26 | 7.8 | 9.6 | 0.00 | 0.00 | 0.00 | 45 | 1026.9 |
| 20260509210420 | 69 | 45 | 3.5 | 4.3 | 0.00 | 0.00 | 0.00 | 53 | 1027.4 |
| 20260509205519 | 69 | 45 | 5.2 | 7.0 | 0.00 | 0.00 | 0.00 | 52 | 1027.6 |
| 20260509204616 | 70 | 22 | 6.1 | 7.0 | 0.00 | 0.00 | 0.00 | 51 | 1027.7 |
| 20260509203519 | 71 | 22 | 6.1 | 7.0 | 0.00 | 0.00 | 0.00 | 49 | 1027.9 |
| 20260509202617 | 70 | 22 | 3.5 | 5.2 | 0.00 | 0.00 | 0.00 | 48 | 1028.2 |
| 20260509201617 | 69 | 45 | 1.7 | 2.6 | 0.00 | 0.00 | 0.00 | 49 | 1028.3 |
| 20260509200618 | 69 | 45 | 2.6 | 3.5 | 0.00 | 0.00 | 0.00 | 52 | 1028.4 |
| 20260509195716 | 68 | 45 | 2.6 | 3.5 | 0.00 | 0.00 | 0.00 | 53 | 1028.6 |
| 20260509194718 | 68 | 45 | 2.6 | 3.5 | 0.00 | 0.00 | 0.00 | 52 | 1028.8 |
| 20260509193716 | 67 | 45 | 3.5 | 3.5 | 0.00 | 0.00 | 0.00 | 52 | 1029.0 |
| 20260509190723 | 65 | 45 | 2.6 | 4.3 | 0.00 | 0.00 | 0.00 | 58 | 1029.6 |
| 20260509185619 | 63 | 45 | 1.7 | 2.6 | 0.00 | 0.00 | 0.00 | 61 | 1029.8 |
| 20260509184618 | 62 | 45 | 4.3 | 5.2 | 0.00 | 0.00 | 0.00 | 65 | 1029.9 |
| 20260509183619 | 61 | 45 | 4.3 | 6.1 | 0.00 | 0.00 | 0.00 | 69 | 1030.0 |
| 20260509182618 | 61 | 45 | 4.3 | 5.2 | 0.00 | 0.00 | 0.00 | 71 | 1030.1 |
| 20260509181718 | 60 | 45 | 4.3 | 4.3 | 0.00 | 0.00 | 0.00 | 72 | 1030.5 |
| 20260509175720 | 61 | 45 | 4.3 | 4.3 | 0.00 | 0.00 | 0.00 | 68 | 1030.5 |
| 20260509174817 | 62 | 45 | 3.5 | 3.5 | 0.00 | 0.00 | 0.00 | 64 | 1030.6 |
| 20260509173818 | 62 | 45 | 3.5 | 4.3 | 0.00 | 0.00 | 0.00 | 64 | 1030.8 |
| 20260509172818 | 61 | 45 | 1.7 | 2.6 | 0.00 | 0.00 | 0.00 | 67 | 1030.8 |
| 20260509171819 | 59 | 45 | 1.7 | 2.6 | 0.00 | 0.00 | 0.00 | 67 | 1031.1 |
| 20260509164818 | 58 | 45 | 3.5 | 3.5 | 0.00 | 0.00 | 0.00 | 74 | 1031.4 |
| 20260509162818 | 56 | 45 | 3.5 | 3.5 | 0.00 | 0.00 | 0.00 | 74 | 1031.8 |
| 20260509161817 | 56 | 45 | 4.3 | 5.2 | 0.00 | 0.00 | 0.00 | 75 | 1031.8 |
| 20260509160916 | 56 | 45 | 5.2 | 5.2 | 0.00 | 0.00 | 0.00 | 73 | 1031.9 |
| 20260509155917 | 59 | 45 | 3.5 | 4.3 | 0.00 | 0.00 | 0.00 | 69 | 1032.0 |
| 20260509153918 | 59 | 67 | 0.9 | 0.9 | 0.00 | 0.00 | 0.00 | 68 | 1032.3 |
| 20260509152917 | 59 | 67 | 1.7 | 1.7 | 0.00 | 0.00 | 0.00 | 71 | 1032.3 |
| 20260509151919 | 57 | 67 | 0.0 | 0.0 | 0.00 | 0.00 | 0.00 | 73 | 1032.4 |
| 20260509151017 | 57 | 67 | 0.0 | 0.0 | 0.00 | 0.00 | 0.00 | 74 | 1032.5 |
| 20260509150116 | 57 | 67 | 0.0 | 0.0 | 0.00 | 0.00 | 0.00 | 74 | 1032.4 |
| 20260509145118 | 56 | 67 | 0.9 | 1.7 | 0.00 | 0.00 | 0.00 | 76 | 1032.4 |
| 20260509144117 | 55 | 67 | 0.9 | 0.9 | 0.00 | 0.00 | 0.00 | 79 | 1032.4 |
| 20260509143117 | 54 | 67 | 0.9 | 0.9 | 0.00 | 0.00 | 0.00 | 82 | 1032.6 |
| 20260509141118 | 51 | 67 | 0.0 | 0.0 | 0.00 | 0.00 | 0.00 | 89 | 1032.5 |
| 20260509141017 | 51 | 67 | 0.0 | 0.0 | 0.00 | 0.00 | 0.00 | 90 | 1032.5 |
| 20260509140017 | 50 | 67 | 0.0 | 0.0 | 0.00 | 0.00 | 0.00 | 91 | 1032.7 |
| 20260509135116 | 49 | 67 | 0.0 | 0.0 | 0.00 | 0.00 | 0.00 | 90 | 1032.5 |
| 20260509134117 | 49 | 67 | 0.9 | 1.7 | 0.00 | 0.00 | 0.00 | 89 | 1032.5 |
| 20260509133116 | 48 | 67 | 1.7 | 1.7 | 0.00 | 0.00 | 0.00 | 89 | 1032.5 |
| 20260509132117 | 48 | 67 | 0.9 | 1.7 | 0.00 | 0.00 | 0.00 | 90 | 1032.5 |
| 20260509130117 | 48 | 67 | 0.0 | 0.0 | 0.00 | 0.00 | 0.00 | 90 | 1032.6 |
| 20260509125118 | 48 | 67 | 0.0 | 0.9 | 0.00 | 0.00 | 0.00 | 90 | 1032.4 |
| 20260509123118 | 48 | 67 | 0.0 | 0.9 | 0.00 | 0.00 | 0.00 | 89 | 1032.2 |
| 20260509122217 | 48 | 67 | 0.0 | 0.9 | 0.00 | 0.00 | 0.00 | 89 | 1032.1 |
| 20260509121217 | 49 | 67 | 0.0 | 0.0 | 0.00 | 0.00 | 0.00 | 89 | 1032.1 |
| 20260509120218 | 49 | 67 | 0.0 | 0.0 | 0.00 | 0.00 | 0.00 | 89 | 1032.0 |
| 20260509113318 | 49 | 67 | 0.0 | 0.0 | 0.00 | 0.00 | 0.00 | 87 | 1032.2 |
| 20260509113216 | 49 | 67 | 0.0 | 0.0 | 0.00 | 0.00 | 0.00 | 87 | 1032.2 |
| 20260509112216 | 50 | 67 | 0.0 | 0.0 | 0.00 | 0.00 | 0.00 | 86 | 1032.2 |
| 20260509111219 | 50 | 67 | 0.0 | 0.0 | 0.00 | 0.00 | 0.00 | 85 | 1032.3 |
| 20260509110316 | 50 | 67 | 0.0 | 0.0 | 0.00 | 0.00 | 0.00 | 84 | 1032.2 |
| 20260509110217 | 50 | 67 | 0.0 | 0.0 | 0.00 | 0.00 | 0.00 | 84 | 1032.3 |
| 20260509105218 | 51 | 67 | 0.0 | 0.0 | 0.00 | 0.00 | 0.00 | 84 | 1032.3 |
| 20260509105118 | 51 | 67 | 0.0 | 0.0 | 0.00 | 0.00 | 0.00 | 84 | 1032.3 |
| 20260509105017 | 51 | 67 | 0.0 | 0.0 | 0.00 | 0.00 | 0.00 | 84 | 1032.3 |
| 20260509104018 | 51 | 67 | 0.9 | 1.7 | 0.00 | 0.00 | 0.00 | 84 | 1032.3 |
| 20260509103117 | 51 | 67 | 0.9 | 1.7 | 0.00 | 0.00 | 0.00 | 84 | 1032.2 |
| 20260509102117 | 51 | 67 | 0.9 | 1.7 | 0.00 | 0.00 | 0.00 | 83 | 1032.3 |
| 20260509101216 | 52 | 67 | 0.0 | 0.0 | 0.00 | 0.00 | 0.00 | 83 | 1032.3 |
| 20260509100218 | 52 | 67 | 0.0 | 0.0 | 0.00 | 0.00 | 0.00 | 82 | 1032.4 |
| 20260509095219 | 53 | 67 | 0.0 | 0.0 | 0.00 | 0.00 | 0.00 | 80 | 1032.4 |
| 20260509094317 | 53 | 67 | 0.9 | 1.7 | 0.00 | 0.00 | 0.00 | 80 | 1032.4 |
| 20260509093318 | 53 | 67 | 0.0 | 0.9 | 0.00 | 0.00 | 0.00 | 80 | 1032.4 |
| 20260509091416 | 54 | 360 | 0.0 | 0.0 | 0.00 | 0.00 | 0.00 | 79 | 1032.5 |
| 20260509090516 | 54 | 360 | 0.0 | 0.0 | 0.00 | 0.00 | 0.00 | 79 | 1032.5 |
| 20260509085518 | 55 | 360 | 0.0 | 0.0 | 0.00 | 0.00 | 0.00 | 79 | 1032.5 |
| 20260509084518 | 54 | 360 | 0.0 | 0.0 | 0.00 | 0.00 | 0.00 | 79 | 1032.7 |
| 20260509082618 | 55 | 360 | 0.0 | 0.0 | 0.00 | 0.00 | 0.00 | 78 | 1032.9 |
| 20260509081619 | 55 | 360 | 0.0 | 0.0 | 0.00 | 0.00 | 0.00 | 77 | 1032.9 |
| 20260509075717 | 55 | 360 | 0.0 | 0.0 | 0.00 | 0.00 | 0.00 | 77 | 1033.1 |
| 20260509074719 | 55 | 360 | 0.0 | 0.0 | 0.00 | 0.00 | 0.00 | 76 | 1032.9 |
| 20260509073718 | 56 | 360 | 0.0 | 0.0 | 0.00 | 0.00 | 0.00 | 75 | 1033.1 |
| 20260509071818 | 57 | 360 | 0.0 | 0.0 | 0.00 | 0.00 | 0.00 | 73 | 1032.9 |
| 20260509070818 | 57 | 360 | 0.0 | 0.0 | 0.00 | 0.00 | 0.00 | 72 | 1032.9 |
| 20260509064913 | 59 | 360 | 0.0 | 0.0 | 0.00 | 0.00 | 0.00 | 68 | 1032.9 |
| 20260509063913 | 59 | 360 | 0.0 | 0.0 | 0.00 | 0.00 | 0.00 | 67 | 1032.9 |
| 20260509062912 | 59 | 360 | 0.0 | 0.0 | 0.00 | 0.00 | 0.00 | 66 | 1032.9 |
| 20260509062010 | 59 | 360 | 0.0 | 0.0 | 0.00 | 0.00 | 0.00 | 67 | 1033.0 |
| 20260509060012 | 60 | 360 | 0.0 | 0.0 | 0.00 | 0.00 | 0.00 | 64 | 1032.9 |
| 20260509055110 | 60 | 360 | 0.0 | 0.0 | 0.00 | 0.00 | 0.00 | 64 | 1032.9 |
| 20260509053112 | 60 | 360 | 0.0 | 0.0 | 0.00 | 0.00 | 0.00 | 65 | 1032.9 |
| 20260509052113 | 60 | 360 | 0.0 | 0.0 | 0.00 | 0.00 | 0.00 | 66 | 1032.9 |
| 20260509051112 | 61 | 360 | 3.5 | 3.5 | 0.00 | 0.00 | 0.00 | 62 | 1032.9 |
| 20260509050211 | 62 | 327 | 1.7 | 3.5 | 0.00 | 0.00 | 0.00 | 59 | 1032.7 |
| 20260509045212 | 62 | 212 | 1.7 | 3.5 | 0.00 | 0.00 | 0.00 | 59 | 1032.7 |
| 20260509044213 | 62 | 217 | 2.6 | 4.3 | 0.00 | 0.00 | 0.00 | 58 | 1032.6 |
| 20260509044115 | 62 | 202 | 0.9 | 4.3 | 0.00 | 0.00 | 0.00 | 59 | 1032.7 |
| 20260509043211 | 62 | 214 | 1.7 | 4.3 | 0.00 | 0.00 | 0.00 | 59 | 1032.5 |
| 20260509042213 | 62 | 207 | 1.7 | 6.1 | 0.00 | 0.00 | 0.00 | 58 | 1032.4 |
| 20260509041212 | 62 | 206 | 1.7 | 6.1 | 0.00 | 0.00 | 0.00 | 58 | 1032.4 |
| 20260509040213 | 62 | 206 | 1.7 | 6.1 | 0.00 | 0.00 | 0.00 | 58 | 1032.2 |
| 20260509040113 | 62 | 208 | 2.6 | 5.2 | 0.00 | 0.00 | 0.00 | 58 | 1032.2 |
| 20260509035211 | 62 | 215 | 3.5 | 5.2 | 0.00 | 0.00 | 0.00 | 57 | 1032.1 |
| 20260509034210 | 62 | 225 | 3.5 | 5.2 | 0.00 | 0.00 | 0.00 | 57 | 1031.9 |
| 20260509033212 | 63 | 225 | 3.5 | 4.3 | 0.00 | 0.00 | 0.00 | 57 | 1031.8 |
| 20260509031310 | 63 | 225 | 6.1 | 7.8 | 0.00 | 0.00 | 0.00 | 55 | 1031.5 |
| 20260509030313 | 64 | 225 | 6.1 | 8.7 | 0.00 | 0.00 | 0.00 | 54 | 1031.5 |
| 20260509025312 | 64 | 225 | 7.0 | 8.7 | 0.00 | 0.00 | 0.00 | 53 | 1031.3 |
| 20260509025210 | 64 | 225 | 7.0 | 9.6 | 0.00 | 0.00 | 0.00 | 52 | 1031.3 |
| 20260509023213 | 65 | 229 | 8.7 | 11.3 | 0.00 | 0.00 | 0.00 | 50 | 1031.0 |
| 20260509022311 | 65 | 225 | 11.3 | 14.8 | 0.00 | 0.00 | 0.00 | 49 | 1031.1 |
| 20260509022210 | 65 | 225 | 7.0 | 9.6 | 0.00 | 0.00 | 0.00 | 50 | 1031.1 |
| 20260509021210 | 66 | 220 | 9.6 | 13.0 | 0.00 | 0.00 | 0.00 | 49 | 1031.1 |
| 20260509015213 | 65 | 222 | 9.6 | 12.2 | 0.00 | 0.00 | 0.00 | 49 | 1031.1 |
| 20260509014212 | 66 | 225 | 11.3 | 13.9 | 0.00 | 0.00 | 0.00 | 48 | 1030.9 |
| 20260509013310 | 66 | 224 | 11.3 | 13.9 | 0.00 | 0.00 | 0.00 | 48 | 1030.9 |
| 20260509012311 | 66 | 226 | 13.0 | 16.5 | 0.00 | 0.00 | 0.00 | 48 | 1031.1 |
| 20260509011410 | 66 | 230 | 13.0 | 20.0 | 0.00 | 0.00 | 0.00 | 47 | 1031.0 |
| 20260509005411 | 66 | 227 | 11.3 | 16.5 | 0.00 | 0.00 | 0.00 | 48 | 1031.1 |
| 20260509004412 | 66 | 226 | 9.6 | 12.2 | 0.00 | 0.00 | 0.00 | 48 | 1031.0 |
| 20260509003411 | 66 | 222 | 11.3 | 15.6 | 0.00 | 0.00 | 0.00 | 47 | 1031.1 |
| 20260509003316 | 66 | 227 | 13.0 | 19.1 | 0.00 | 0.00 | 0.00 | 47 | 1031.1 |